TimeEDT,TemperatureF,Dew PointF,Humidity,Sea Level PressureIn,VisibilityMPH,Wind Direction,Wind SpeedMPH,Gust SpeedMPH,PrecipitationIn,Events,Conditions,WindDirDegrees,DateUTC
12:54 AM,57.0,52.0,83,30.31,10.0,Variable,4.6,-,N/A,,Clear,0,2012-10-13 04:54:00
1:54 AM,54.0,51.1,90,30.32,10.0,NNE,3.5,-,N/A,,Clear,30,2012-10-13 05:54:00
2:54 AM,55.0,50.0,83,30.33,10.0,NNE,5.8,-,N/A,,Scattered Clouds,30,2012-10-13 06:54:00
3:54 AM,55.0,48.0,77,30.35,10.0,NE,12.7,-,N/A,,Overcast,40,2012-10-13 07:54:00
4:54 AM,52.0,46.9,83,30.38,10.0,NE,10.4,-,N/A,,Clear,50,2012-10-13 08:54:00
5:54 AM,50.0,46.0,86,30.40,10.0,NNE,6.9,-,N/A,,Clear,20,2012-10-13 09:54:00
6:54 AM,48.9,43.0,80,30.43,10.0,NNE,9.2,-,N/A,,Clear,30,2012-10-13 10:54:00
7:54 AM,48.0,41.0,77,30.45,10.0,NNE,5.8,-,N/A,,Clear,20,2012-10-13 11:54:00
8:54 AM,51.1,41.0,68,30.46,10.0,NNE,6.9,-,N/A,,Clear,30,2012-10-13 12:54:00
9:54 AM,54.0,39.0,57,30.47,10.0,ENE,10.4,-,N/A,,Partly Cloudy,60,2012-10-13 13:54:00
10:54 AM,57.0,39.0,51,30.48,10.0,NE,10.4,-,N/A,,Mostly Cloudy,50,2012-10-13 14:54:00
11:54 AM,59.0,39.9,49,30.47,10.0,NE,8.1,-,N/A,,Overcast,50,2012-10-13 15:54:00
12:02 PM,59.0,39.2,48,30.47,10.0,East,8.1,-,N/A,,Mostly Cloudy,90,2012-10-13 16:02:00
12:54 PM,61.0,41.0,48,30.44,10.0,Variable,3.5,-,N/A,,Clear,0,2012-10-13 16:54:00
1:54 PM,63.0,42.1,46,30.40,10.0,NE,6.9,-,N/A,,Clear,50,2012-10-13 17:54:00
2:54 PM,64.9,44.1,47,30.37,10.0,Calm,Calm,-,N/A,,Clear,0,2012-10-13 18:54:00
4:54 PM,66.0,46.0,48,30.34,10.0,SSE,5.8,-,N/A,,Clear,160,2012-10-13 20:54:00
5:54 PM,64.9,46.0,50,30.33,10.0,East,8.1,-,N/A,,Clear,80,2012-10-13 21:54:00
6:54 PM,59.0,50.0,72,30.34,10.0,Calm,Calm,-,N/A,,Clear,0,2012-10-13 22:54:00
7:54 PM,54.0,51.1,90,30.35,10.0,Calm,Calm,-,N/A,,Clear,0,2012-10-13 23:54:00
8:54 PM,53.1,48.9,86,30.36,10.0,Calm,Calm,-,N/A,,Clear,0,2012-10-14 00:54:00
10:54 PM,51.1,48.0,89,30.35,10.0,Calm,Calm,-,N/A,,Clear,0,2012-10-14 02:54:00